Time,TemperatureF,DewpointF,PressureIn,WindDirection,WindDirectionDegrees,WindSpeedMPH,WindSpeedGustMPH,Humidity,HourlyPrecipIn,Conditions,Clouds,dailyrainin,SolarRadiationWatts/m^2,SoftwareType,DateUTC
2013-03-06 00:21:00,50.0,29.0,-100.00,SSE,163,3.0,9.0,44,0.00,,,-99.99,0.000000,,2013-03-06 08:21:00,
2013-03-06 00:31:00,50.0,29.0,-100.00,SSE,163,3.0,9.0,44,0.00,,,-99.99,0.000000,,2013-03-06 08:31:00,
2013-03-06 00:42:00,50.0,29.0,-100.00,SSE,163,3.0,9.0,44,0.00,,,-99.99,0.000000,,2013-03-06 08:42:00,
2013-03-06 00:52:00,50.0,29.0,-100.00,SSE,163,3.0,9.0,44,0.00,,,-99.99,0.000000,,2013-03-06 08:52:00,
2013-03-06 01:21:00,47.0,28.0,-100.00,NNE,27,2.0,8.0,47,0.00,,,0.00,0.000000,,2013-03-06 09:21:00,
2013-03-06 01:31:00,47.0,28.0,-100.00,NNE,27,2.0,8.0,47,0.00,,,0.00,0.000000,,2013-03-06 09:31:00,
2013-03-06 01:41:00,47.0,28.0,-100.00,NNE,27,2.0,8.0,47,0.00,,,0.00,0.000000,,2013-03-06 09:41:00,
2013-03-06 01:51:00,47.0,28.0,-100.00,NNE,27,2.0,8.0,47,0.00,,,0.00,0.000000,,2013-03-06 09:51:00,
2013-03-06 02:21:00,46.0,30.0,-100.00,NE,39,3.0,10.0,53,0.00,,,0.00,0.000000,,2013-03-06 10:21:00,
2013-03-06 02:31:00,46.0,30.0,-100.00,NE,39,3.0,10.0,53,0.00,,,0.00,0.000000,,2013-03-06 10:31:00,
2013-03-06 02:42:00,46.0,30.0,-100.00,NE,39,3.0,10.0,53,0.00,,,0.00,0.000000,,2013-03-06 10:42:00,
2013-03-06 02:51:00,46.0,30.0,-100.00,NE,39,3.0,10.0,53,0.00,,,0.00,0.000000,,2013-03-06 10:51:00,
2013-03-06 03:22:00,45.0,31.0,-100.00,SSE,152,6.0,9.0,58,0.00,,,0.00,0.000000,,2013-03-06 11:22:00,
2013-03-06 03:32:00,45.0,31.0,-100.00,SSE,152,6.0,9.0,58,0.00,,,0.00,0.000000,,2013-03-06 11:32:00,
2013-03-06 03:42:00,45.0,31.0,-100.00,SSE,152,6.0,9.0,58,0.00,,,0.00,0.000000,,2013-03-06 11:42:00,
2013-03-06 03:52:00,45.0,31.0,-100.00,SSE,152,6.0,9.0,58,0.00,,,0.00,0.000000,,2013-03-06 11:52:00,
2013-03-06 04:21:00,42.0,31.0,-100.00,North,5,4.0,11.0,64,0.00,,,0.00,0.000000,,2013-03-06 12:21:00,
2013-03-06 04:32:00,42.0,31.0,-100.00,North,5,4.0,11.0,64,0.00,,,0.00,0.000000,,2013-03-06 12:32:00,
2013-03-06 04:42:00,42.0,31.0,-100.00,North,5,4.0,11.0,64,0.00,,,0.00,0.000000,,2013-03-06 12:42:00,
2013-03-06 04:52:00,42.0,31.0,-100.00,North,5,4.0,11.0,64,0.00,,,0.00,0.000000,,2013-03-06 12:52:00,
2013-03-06 05:21:00,43.0,31.0,-100.00,SE,135,3.0,7.0,63,0.00,,,0.00,0.000000,,2013-03-06 13:21:00,
2013-03-06 05:32:00,43.0,31.0,-100.00,SE,135,3.0,7.0,63,0.00,,,0.00,0.000000,,2013-03-06 13:32:00,
2013-03-06 05:42:00,43.0,31.0,-100.00,SE,135,3.0,7.0,63,0.00,,,0.00,0.000000,,2013-03-06 13:42:00,
2013-03-06 05:51:00,43.0,31.0,-100.00,SE,135,3.0,7.0,63,0.00,,,0.00,0.000000,,2013-03-06 13:51:00,
2013-03-06 06:21:00,48.0,30.0,-100.00,NNW,348,10.0,14.0,49,0.00,,,0.00,0.000000,,2013-03-06 14:21:00,
2013-03-06 06:32:00,48.0,30.0,-100.00,NNW,348,10.0,14.0,49,0.00,,,0.00,0.000000,,2013-03-06 14:32:00,
2013-03-06 06:41:00,48.0,30.0,-100.00,NNW,348,10.0,14.0,49,0.00,,,0.00,0.000000,,2013-03-06 14:41:00,
2013-03-06 06:52:00,48.0,30.0,-100.00,NNW,348,10.0,14.0,49,0.00,,,0.00,0.000000,,2013-03-06 14:52:00,
2013-03-06 07:21:00,48.0,33.0,-100.00,North,353,5.0,21.0,55,0.00,,,0.00,16.000000,,2013-03-06 15:21:00,
2013-03-06 07:32:00,48.0,33.0,-100.00,North,353,5.0,21.0,55,0.00,,,0.00,16.000000,,2013-03-06 15:32:00,
2013-03-06 07:42:00,48.0,33.0,-100.00,North,353,5.0,21.0,55,0.00,,,0.00,16.000000,,2013-03-06 15:42:00,
2013-03-06 07:51:00,48.0,33.0,-100.00,North,353,5.0,21.0,55,0.00,,,0.00,16.000000,,2013-03-06 15:51:00,
2013-03-06 08:21:00,50.0,36.0,-100.00,NW,326,5.0,12.0,59,0.00,,,0.00,99.000000,,2013-03-06 16:21:00,
2013-03-06 08:32:00,50.0,36.0,-100.00,NW,326,5.0,12.0,59,0.00,,,0.00,99.000000,,2013-03-06 16:32:00,
2013-03-06 08:41:00,50.0,36.0,-100.00,NW,326,5.0,12.0,59,0.00,,,0.00,99.000000,,2013-03-06 16:41:00,
2013-03-06 08:51:00,50.0,36.0,-100.00,NW,326,5.0,12.0,59,0.00,,,0.00,99.000000,,2013-03-06 16:51:00,
2013-03-06 09:21:00,50.0,37.0,-100.00,NNW,331,3.0,13.0,61,0.00,,,0.00,100.000000,,2013-03-06 17:21:00,
2013-03-06 09:32:00,50.0,37.0,-100.00,NNW,331,3.0,13.0,61,0.00,,,0.00,100.000000,,2013-03-06 17:32:00,
2013-03-06 09:41:00,50.0,37.0,-100.00,NNW,331,3.0,13.0,61,0.00,,,0.00,100.000000,,2013-03-06 17:41:00,
2013-03-06 09:52:00,50.0,37.0,-100.00,NNW,331,3.0,13.0,61,0.00,,,0.00,100.000000,,2013-03-06 17:52:00,
2013-03-06 10:28:00,51.0,35.0,-100.00,North,359,4.0,16.0,54,0.00,,,0.00,194.000000,,2013-03-06 18:28:00,
2013-03-06 10:42:00,51.0,35.0,-100.00,North,359,4.0,16.0,54,0.00,,,0.00,194.000000,,2013-03-06 18:42:00,
2013-03-06 10:52:00,51.0,35.0,-100.00,North,359,4.0,16.0,54,0.00,,,0.00,194.000000,,2013-03-06 18:52:00,
2013-03-06 11:21:00,55.0,35.0,-100.00,North,11,11.0,27.0,47,0.00,,,0.00,327.000000,,2013-03-06 19:21:00,
2013-03-06 11:32:00,55.0,35.0,-100.00,North,11,11.0,27.0,47,0.00,,,0.00,327.000000,,2013-03-06 19:32:00,
2013-03-06 11:42:00,55.0,35.0,-100.00,North,11,11.0,27.0,47,0.00,,,0.00,327.000000,,2013-03-06 19:42:00,
2013-03-06 11:52:00,55.0,35.0,-100.00,North,11,11.0,27.0,47,0.00,,,0.00,327.000000,,2013-03-06 19:52:00,
2013-03-06 12:22:00,54.0,33.0,-100.00,North,5,12.0,29.0,45,0.00,,,0.00,499.000000,,2013-03-06 20:22:00,
2013-03-06 12:32:00,54.0,33.0,-100.00,North,5,12.0,29.0,45,0.00,,,0.00,499.000000,,2013-03-06 20:32:00,
2013-03-06 12:42:00,54.0,33.0,-100.00,North,5,12.0,29.0,45,0.00,,,0.00,499.000000,,2013-03-06 20:42:00,
2013-03-06 12:52:00,54.0,33.0,-100.00,North,5,12.0,29.0,45,0.00,,,0.00,499.000000,,2013-03-06 20:52:00,
2013-03-06 13:22:00,54.0,31.0,-100.00,NNW,337,18.0,28.0,42,0.00,,,0.00,376.000000,,2013-03-06 21:22:00,
2013-03-06 13:32:00,54.0,31.0,-100.00,NNW,337,18.0,28.0,42,0.00,,,0.00,376.000000,,2013-03-06 21:32:00,
2013-03-06 13:42:00,54.0,31.0,-100.00,NNW,337,18.0,28.0,42,0.00,,,0.00,376.000000,,2013-03-06 21:42:00,
2013-03-06 13:51:00,54.0,31.0,-100.00,NNW,337,18.0,28.0,42,0.00,,,0.00,376.000000,,2013-03-06 21:51:00,
2013-03-06 14:21:00,53.0,30.0,-100.00,North,350,12.0,27.0,41,0.00,,,0.00,262.000000,,2013-03-06 22:21:00,
2013-03-06 14:32:00,53.0,30.0,-100.00,North,350,12.0,27.0,41,0.00,,,0.00,262.000000,,2013-03-06 22:32:00,
2013-03-06 14:41:00,53.0,30.0,-100.00,North,350,12.0,27.0,41,0.00,,,0.00,262.000000,,2013-03-06 22:41:00,
2013-03-06 14:51:00,53.0,30.0,-100.00,North,350,12.0,27.0,41,0.00,,,0.00,262.000000,,2013-03-06 22:51:00,
2013-03-06 15:21:00,55.0,29.0,-100.00,North,9,16.0,28.0,37,0.00,,,0.00,233.000000,,2013-03-06 23:21:00,
2013-03-06 15:31:00,55.0,29.0,-100.00,North,9,16.0,28.0,37,0.00,,,0.00,233.000000,,2013-03-06 23:31:00,
2013-03-06 15:41:00,55.0,29.0,-100.00,North,9,16.0,28.0,37,0.00,,,0.00,233.000000,,2013-03-06 23:41:00,
2013-03-06 15:52:00,55.0,29.0,-100.00,North,9,16.0,28.0,37,0.00,,,0.00,233.000000,,2013-03-06 23:52:00,
2013-03-06 16:21:00,54.0,31.0,-100.00,NW,316,16.0,30.0,41,0.00,,,0.00,156.000000,,2013-03-07 00:21:00,
2013-03-06 16:32:00,54.0,31.0,-100.00,NW,316,16.0,30.0,41,0.00,,,0.00,156.000000,,2013-03-07 00:32:00,
2013-03-06 16:41:00,54.0,31.0,-100.00,NW,316,16.0,30.0,41,0.00,,,0.00,156.000000,,2013-03-07 00:41:00,
2013-03-06 16:51:00,54.0,31.0,-100.00,NW,316,16.0,30.0,41,0.00,,,0.00,156.000000,,2013-03-07 00:51:00,
2013-03-06 17:21:00,53.0,33.0,-100.00,NNW,336,16.0,27.0,47,0.00,,,0.00,78.000000,,2013-03-07 01:21:00,
2013-03-06 17:31:00,53.0,33.0,-100.00,NNW,336,16.0,27.0,47,0.00,,,0.00,78.000000,,2013-03-07 01:31:00,
2013-03-06 17:41:00,53.0,33.0,-100.00,NNW,336,16.0,27.0,47,0.00,,,0.00,78.000000,,2013-03-07 01:41:00,
2013-03-06 17:51:00,53.0,33.0,-100.00,NNW,336,16.0,27.0,47,0.00,,,0.00,78.000000,,2013-03-07 01:51:00,
2013-03-06 18:21:00,52.0,31.0,-100.00,NW,312,14.0,22.0,45,0.00,,,0.00,41.000000,,2013-03-07 02:21:00,
2013-03-06 18:31:00,52.0,31.0,-100.00,NW,312,14.0,22.0,45,0.00,,,0.00,41.000000,,2013-03-07 02:31:00,
2013-03-06 18:41:00,52.0,31.0,-100.00,NW,312,14.0,22.0,45,0.00,,,0.00,41.000000,,2013-03-07 02:41:00,
2013-03-06 18:51:00,52.0,31.0,-100.00,NW,312,14.0,22.0,45,0.00,,,0.00,41.000000,,2013-03-07 02:51:00,
2013-03-06 19:21:00,50.0,32.0,-100.00,NNW,346,4.0,18.0,49,0.00,,,0.00,0.000000,,2013-03-07 03:21:00,
2013-03-06 19:31:00,50.0,32.0,-100.00,NNW,346,4.0,18.0,49,0.00,,,0.00,0.000000,,2013-03-07 03:31:00,
2013-03-06 19:41:00,50.0,32.0,-100.00,NNW,346,4.0,18.0,49,0.00,,,0.00,0.000000,,2013-03-07 03:41:00,
2013-03-06 19:51:00,50.0,32.0,-100.00,NNW,346,4.0,18.0,49,0.00,,,0.00,0.000000,,2013-03-07 03:51:00,
2013-03-06 20:21:00,48.0,31.0,-100.00,NNW,329,10.0,16.0,51,0.00,,,0.00,0.000000,,2013-03-07 04:21:00,
2013-03-06 20:31:00,48.0,31.0,-100.00,NNW,329,10.0,16.0,51,0.00,,,0.00,0.000000,,2013-03-07 04:31:00,
2013-03-06 20:41:00,48.0,31.0,-100.00,NNW,329,10.0,16.0,51,0.00,,,0.00,0.000000,,2013-03-07 04:41:00,
2013-03-06 20:51:00,48.0,31.0,-100.00,NNW,329,10.0,16.0,51,0.00,,,0.00,0.000000,,2013-03-07 04:51:00,
2013-03-06 21:22:00,47.0,30.0,-100.00,NNE,12,6.0,14.0,52,0.00,,,0.00,0.000000,,2013-03-07 05:22:00,
2013-03-06 21:32:00,47.0,30.0,-100.00,NNE,12,6.0,14.0,52,0.00,,,0.00,0.000000,,2013-03-07 05:32:00,
2013-03-06 21:41:00,47.0,30.0,-100.00,NNE,12,6.0,14.0,52,0.00,,,0.00,0.000000,,2013-03-07 05:41:00,
2013-03-06 21:52:00,47.0,30.0,-100.00,NNE,12,6.0,14.0,52,0.00,,,0.00,0.000000,,2013-03-07 05:52:00,
2013-03-06 22:21:00,44.0,33.0,-100.00,SSE,156,3.0,12.0,66,0.00,,,0.00,0.000000,,2013-03-07 06:21:00,
2013-03-06 22:31:00,44.0,33.0,-100.00,SSE,156,3.0,12.0,66,0.00,,,0.00,0.000000,,2013-03-07 06:31:00,
2013-03-06 22:41:00,44.0,33.0,-100.00,SSE,156,3.0,12.0,66,0.00,,,0.00,0.000000,,2013-03-07 06:41:00,
2013-03-06 22:51:00,44.0,33.0,-100.00,SSE,156,3.0,12.0,66,0.00,,,0.00,0.000000,,2013-03-07 06:51:00,
2013-03-06 23:21:00,44.0,31.0,-100.00,NNE,12,7.0,9.0,60,0.00,,,0.00,0.000000,,2013-03-07 07:21:00,
2013-03-06 23:32:00,44.0,31.0,-100.00,NNE,12,7.0,9.0,60,0.00,,,0.00,0.000000,,2013-03-07 07:32:00,
2013-03-06 23:42:00,44.0,31.0,-100.00,NNE,12,7.0,9.0,60,0.00,,,0.00,0.000000,,2013-03-07 07:42:00,
2013-03-06 23:51:00,44.0,31.0,-100.00,NNE,12,7.0,9.0,60,0.00,,,0.00,0.000000,,2013-03-07 07:51:00,